User: anonymous   Login
Location: ???? ?????
(30.0052°N, 31.2891°E)
Time: 04:52:18
(UTC+00:00)
Language:

SL-16 R/B - Orbit

View from above orbital plane
View from above orbital plane
View from above satellite
View from above satellite

Ground track
Ground track

The orbit data is extracted from the following two-line orbital elements,

1 28353U 04021B   22228.82727222 -.00000014  00000-0  17376-4 0  9990
2 28353  71.0013  81.6555 0006585 232.4595 127.5930 14.14280680938886
Epoch (UTC): 16 August 2022 19:51:16
Eccentricity: 0.0006585
inclination: 71.0013°
perigee height: 840 km
apogee height: 849 km
right ascension of ascending node: 81.6555°
argument of perigee: 232.4595°
revolutions per day: 14.14280680
mean anomaly at epoch: 127.5930°
orbit number at epoch: 93888

The dashed part of the orbit path shows where the satellite is in the earth's shadow,  

DLR